Location: Newark
(49.2194°N, 20.0100°E)
Time: 19:33:19
(UTC+00:00)

Envisat - Visible Passes

Search period start: 07 March 2021 00:00
Search period end: 17 March 2021 00:00
Orbit: 764 x 766 km, 98.1° (Epoch: 07 March)

Date Brightness Start Highest point End Pass type
(mag) Time Alt. Az. Time Alt. Az. Time Alt. Az.
07 Mar 3.8 04:10:38 10° NNE 04:15:40 58° E 04:20:40 10° S visible
07 Mar 6.8 17:13:01 10° W 17:14:14 11° W 17:15:27 10° WNW visible
08 Mar 5.1 03:34:13 10° NE 03:38:37 29° E 03:43:00 10° SSE visible
09 Mar 6.0 02:58:40 10° NE 03:01:22 14° E 03:04:04 10° ESE visible
10 Mar 4.2 03:59:17 10° NNE 04:04:11 47° E 04:09:05 10° S visible
11 Mar 5.5 03:23:02 10° NE 03:27:05 23° E 03:31:07 10° SE visible
12 Mar 6.3 02:48:12 10° ENE 02:49:46 11° E 02:51:19 10° ESE visible
12 Mar 3.3 04:24:32 10° NNE 04:29:40 77° ESE 04:34:44 10° S visible
13 Mar 4.6 03:47:57 10° NNE 03:52:42 38° E 03:57:24 10° SSE visible
14 Mar 5.8 03:11:56 10° NE 03:15:32 19° E 03:19:06 10° SE visible
15 Mar 3.6 04:13:08 10° NNE 04:18:12 62° E 04:23:14 10° S visible
16 Mar 5.1 03:36:41 10° NNE 03:41:11 31° E 03:45:40 10° SSE visible
